Home > Weather > Whitehorse > Past weeks

Flag for Canada Weather for the Past 2 Weeks in Whitehorse, Yukon, Canada

Now
30 °F

Passing clouds.


Feels Like: 20 °F
Forecast: 26 / 46 °F
Wind: 13 mph from South

Location: Whitehorse

Current Time: Apr 30, 2016 at 7:06:18 AM

Latest Report: Apr 30, 2016 at 6:00 AM


Visibility: 40 mi

Pressure: 30.12 "Hg (27.79 "Hg at 640m altitude)

Humidity: 69%

Dew Point: 21 °F

Location of WhitehorseLocation

Historic Weather in Whitehorse — Graph

°F

Whitehorse Temperature Yesterday

Maximum temperature yesterday: 52 °F (at 3:00 PM)
Minimum temperature yesterday: 36 °F (at 1:00 AM)
Average temperature yesterday: 42 °F

High & Low Weather Summary for the Past Weeks

 TemperatureHumidityPressure
High59 °F (Apr 24, 3:00 PM)93% (Apr 17, 1:00 PM)30.25 "Hg (Apr 17, 1:00 PM)
Low25 °F (Apr 20, 6:00 AM)19% (Apr 20, 6:00 PM)29.71 "Hg (Apr 15, 6:00 AM)
Average42 °F53%29.93 "Hg
* Reported Apr 15 6:00 AM — Apr 30 6:00 AM, Whitehorse, Weather by CustomWeather, © 2016

Note: Actual official high and low records may vary slightly from our data, if they occured in-between our weather recording intervals... More about our weather records

Advertising

Whitehorse Weather History for the Previous 24 Hours

Scroll right to see more
 ConditionsComfort  
Time TempWeatherWind HumidityBarometerVisibility
6:00 AM
Sat, Apr 30
30 °FPassing clouds.13 mph69%30.12 "Hg40 mi
5:00 AM32 °FClear.12 mph64%30.12 "Hg12 mi
4:00 AM32 °FClear.8 mph69%30.11 "Hg15 mi
3:00 AM34 °FClear.10 mph60%30.13 "Hg15 mi
2:00 AM34 °FClear.8 mph60%30.13 "Hg15 mi
1:00 AM36 °FClear.13 mph60%30.12 "Hg15 mi
12:06 AM37 °FPassing clouds.14 mph52%30.11 "Hg15 mi
11:00 PM
Fri, Apr 29
39 °FPassing clouds.8 mph42%30.08 "Hg40 mi
10:00 PM43 °FPassing clouds.10 mph34%30.07 "Hg40 mi
9:00 PM45 °FPassing clouds.13 mph31%30.05 "Hg40 mi
8:00 PM46 °FPassing clouds.15 mph29%30.04 "Hg40 mi
7:00 PM48 °FScattered clouds.17 mph27%30.02 "Hg40 mi
6:00 PM50 °FScattered clouds.18 mph24%30.01 "Hg40 mi
5:00 PM50 °FPartly sunny.21 mph22%30.01 "Hg40 mi
4:00 PM52 °FPartly sunny.21 mph20%29.99 "Hg40 mi
3:00 PM52 °FPartly sunny.17 mph20%29.98 "Hg40 mi
2:00 PM50 °FPartly sunny.15 mph24%29.98 "Hg40 mi
1:00 PM48 °FBroken clouds.16 mph25%29.97 "Hg40 mi
12:00 PM46 °FScattered showers. Partly sunny.12 mph29%29.97 "Hg40 mi
11:00 AM45 °FBroken clouds.6 mph53%29.97 "Hg40 mi
10:00 AM41 °FBroken clouds.10 mph61%29.97 "Hg40 mi
9:00 AM39 °FBroken clouds.10 mph65%29.96 "Hg40 mi
8:00 AM37 °FBroken clouds.10 mph65%29.95 "Hg40 mi
7:00 AM36 °FBroken clouds.9 mph70%29.93 "Hg40 mi
Weather by CustomWeather, © 2016

See weather overviewHow to use our weather pages